Content
SEND FEEDBACK

Daily
Averages
Monthly
Summary
United States of America

HAZELWOOD, MISSOURI


Home > North America > United States > Missouri
Elevation: 570 feet     Latitude: 38 45N     Longitude: 090 22W

WEATHER
 
SELECT A DAY
Number of Records: 200,626;   Date Range: 1/1/95 - 11/26/14
 
SHARE

PRINT THIS DATA

[ ← Previous Day ]
WEATHER ALMANAC - APRIL 10, 2013
[ Next Day → ]
[ °C ]   °F
Weather ElementAverageHighLow
Temperature62.7 °F75.9 °F (2:54 pm) (7:52 pm)
Dewpoint57.6 °F66.2 °F (4:15 pm) (7:00 pm)
Humidity83.3 %94 % (7:59 pm)65 % (3:12 pm)
Barometer28.44 in29.83 in (10:41 am) (7:00 pm)
Wind Speed7.4 mph40.3 mph (7:52 pm)
Wind Gust55.2 mph (7:52 pm)
Weather ElementAverage
Visibility7.6 mi
Wind DirectionSSE (157.4 °)

Weather ElementTotal
Precipitation1.78 in
Heating Degree Days27.1 (Base 65)
Averaged from 47 records on April 10, 2013
WEATHER CONDITIONS BREAKOUT
WIND DIRECTION BREAKOUT
WEATHER BY HOUR - APRIL 10, 2013
[ °C ]   °F
Local TimeTemperatureDewpointHumidityBarometerVisibilityWind DirectionWind SpeedGust SpeedPrecipitationEventsConditions
1:54 AM69.1 °F59.0 °F70 %29.78 in10.0 miCalmMostly Cloudy
2:54 AM66.0 °F59.0 °F78 %29.75 in10.0 miEast (90°)6.9 mphMostly Cloudy
3:54 AM68.0 °F60.1 °F76 %29.75 in10.0 miESE (120°)3.5 mphPartly Cloudy
4:54 AM66.0 °F60.1 °F81 %29.72 in10.0 miSE (140°)4.6 mphClear
5:54 AM72.0 °F63.0 °F73 %29.71 in10.0 miSouth (190°)9.2 mphScattered Clouds
6:42 AM69.8 °F62.6 °F78 %29.78 in10.0 miNW (310°)10.4 mphThunderstormMostly Cloudy
6:54 AM69.1 °F61.0 °F75 %29.77 in10.0 miCalmThunderstormOvercast
7:13 AM68.0 °F57.2 °F68 %29.80 in8.0 miNW (320°)6.9 mph0.01 inRainLight Rain
7:54 AM66.0 °F59.0 °F78 %29.79 in10.0 miNorth (350°)3.5 mph0.05 inOvercast
8:54 AM64.9 °F59.0 °F81 %29.79 in10.0 miCalm0.00 inThunderstormOvercast
9:54 AM63.0 °F59.0 °F87 %29.80 in10.0 miCalm0.01 inOvercast
10:41 AM62.6 °F57.2 °F82 %29.83 in10.0 miNNW (340°)6.9 mphOvercast
10:54 AM62.1 °F57.9 °F86 %29.82 in10.0 miNW (310°)5.8 mphOvercast
11:09 AM62.6 °F57.2 °F82 %29.83 in10.0 miNW (320°)3.5 mphOvercast
11:54 AM64.4 °F59.0 °F83 %29.82 in10.0 miVariable3.5 mphMostly Cloudy
12:03 PM64.4 °F59.0 °F83 %29.81 in10.0 miENE (70°)5.8 mphScattered Clouds
12:54 PM68.0 °F61.0 °F78 %29.78 in10.0 miENE (70°)6.9 mphMostly Cloudy
1:54 PM73.4 °F64.4 °F73 %29.74 in10.0 miENE (70°)4.6 mphScattered Clouds
2:54 PM75.9 °F64.0 °F67 %29.69 in10.0 miNNE (30°)4.6 mphOvercast
3:12 PM75.2 °F62.6 °F65 %29.70 in10.0 miENE (70°)4.6 mphThunderstormOvercast
3:37 PM69.8 °F64.4 °F83 %29.70 in1.8 miNW (320°)13.8 mph0.15 inRain-ThunderstormHeavy Thunderstorms and Rain
3:54 PM71.1 °F66.0 °F84 %29.66 in10.0 miNorth (10°)8.1 mph0.24 inRain-ThunderstormLight Thunderstorms and Rain
4:15 PM71.6 °F66.2 °F83 %29.66 in8.0 miNorth (360°)5.8 mph0.00 inMostly Cloudy
4:54 PM68.0 °F64.0 °F87 %29.64 in7.0 miNNE (20°)8.1 mph0.00 inRainLight Rain
5:21 PM66.2 °F62.6 °F88 %29.63 in6.0 miNE (40°)8.1 mph0.00 inMostly Cloudy
5:54 PM66.9 °F64.0 °F90 %29.58 in6.0 miEast (80°)8.1 mph0.00 inMostly Cloudy
6:25 PM66.2 °F62.6 °F88 %29.59 in6.0 miNE (40°)6.9 mphThunderstormPartly Cloudy
6:35 PM66.2 °F62.6 °F88 %29.58 in5.0 miENE (70°)5.8 mphThunderstormOvercast
6:54 PM66.0 °F62.1 °F87 %29.57 in5.0 miWNW (300°)3.5 mphThunderstormOvercast
7:12 PM66.2 °F62.6 °F88 %29.61 in1.8 miWSW (240°)9.2 mph0.09 inRain-ThunderstormHeavy Thunderstorms and Rain
7:20 PM66.2 °F62.6 °F88 %29.59 in3.0 miWNW (300°)5.8 mph0.11 inRain-ThunderstormLight Thunderstorms and Rain
7:52 PM0.0 °F0.0 °FWNW (290°)40.3 mph55.2 mph
7:53 PM0.0 °F0.0 °FWNW (290°)40.3 mph55.2 mph
7:59 PM62.6 °F60.8 °F94 %29.69 in2.0 miWest (270°)24.2 mph49.5 mph0.02 inRain-ThunderstormThunderstorms and Rain
8:11 PM62.6 °F59.0 °F88 %29.69 in2.0 miNorth0.04 inThunderstorm
8:24 PM60.8 °F57.2 °F88 %29.70 in4.0 miWest (280°)10.4 mph24.2 mph0.07 inRain-ThunderstormRain
8:40 PM60.8 °F57.2 °F88 %29.70 in5.0 miWest (270°)6.9 mph0.12 inRainRain
8:50 PM60.8 °F57.2 °F88 %29.69 in4.0 miWNW (290°)4.6 mph0.16 inRain-ThunderstormThunderstorms and Rain
8:54 PM61.0 °F57.9 °F90 %29.68 in4.0 miWNW (300°)5.8 mph0.17 inRain-ThunderstormThunderstorms and Rain
9:05 PM60.8 °F57.2 °F88 %29.68 in5.0 miWNW (300°)3.5 mphRainRain
9:34 PM60.8 °F57.2 °F88 %29.70 in7.0 miCalm0.15 inRain-ThunderstormThunderstorms and Rain
9:54 PM60.1 °F57.9 °F93 %29.69 in10.0 miCalm0.20 inRain-ThunderstormLight Rain
10:04 PM60.8 °F57.2 °F88 %29.70 in7.0 miEast (100°)3.5 mph0.02 inRainLight Rain
10:14 PM60.8 °F57.2 °F88 %29.68 in6.0 miENE (70°)5.8 mph0.05 inRainRain
10:54 PM60.1 °F57.0 °F90 %29.64 in10.0 miEast (100°)6.9 mph0.10 inRainLight Rain
11:34 PM60.8 °F57.2 °F88 %29.67 in10.0 miSE (130°)5.8 mph0.01 inOvercast
11:54 PM61.0 °F57.9 °F90 %29.65 in10.0 miSE (130°)6.9 mph0.01 inOvercast
Hourly data recorded from KSUS, located miles away from Hazelwood, Missouri







STORIES FROM OUR PARTNERS